This is the latest recevied weather packets stored in our database for station/object KD1KE. If no packets are shown the sender has not sent any weather packets the latest 10 day(s).
| Time | Temp. | Humidity | Pressure | Rain* | Wind** | Luminosity | Snow |
|---|---|---|---|---|---|---|---|
| 1777897109 | 8.89° C | 61% | 1006.4 hPa | 0 mm | - | - | - |
| 1777896572 | 7.78° C | 66% | 1006.4 hPa | 0 mm | - | - | - |
| 1777896541 | 7.78° C | 66% | 1006.4 hPa | 0 mm | - | - | - |
| 1777896031 | 7.78° C | 64% | 1006.4 hPa | 0 mm | - | - | - |
| 1777895882 | 7.22° C | 65% | 1006.4 hPa | 0 mm | - | - | - |
| 1777895490 | 7.22° C | 67% | 1006.5 hPa | 0 mm | - | - | - |
| 1777895222 | 6.67° C | 67% | 1006.5 hPa | 0 mm | - | - | - |
| 1777894951 | 6.67° C | 71% | 1006.4 hPa | 0 mm | - | - | - |
| 1777894561 | 5.56° C | 72% | 1006.4 hPa | 0 mm | - | - | - |
| 1777894409 | 5.56° C | 76% | 1006.5 hPa | 0 mm | - | - | - |
| 1777893901 | 4.44° C | 79% | 1006.6 hPa | 0 mm | - | - | - |
| 1777893873 | 4.44° C | 79% | 1006.5 hPa | 0 mm | - | - | - |
| 1777893330 | 3.89° C | 81% | 1006.4 hPa | 0 mm | - | - | - |
| 1777893240 | 3.33° C | 82% | 1006.4 hPa | 0 mm | - | - | - |
| 1777892792 | 2.78° C | 84% | 1006.4 hPa | 0 mm | - | - | - |
| 1777892580 | 2.78° C | 85% | 1006.5 hPa | 0 mm | - | - | - |
| 1777892249 | 2.22° C | 86% | 1006.5 hPa | 0 mm | - | - | - |
| 1777891920 | 1.67° C | 86% | 1006.5 hPa | 0 mm | - | - | - |
| 1777891710 | 1.67° C | 86% | 1006.5 hPa | 0 mm | - | - | - |
| 1777891262 | 1.11° C | 86% | 1006.4 hPa | 0 mm | - | - | - |
| 1777891170 | 1.11° C | 86% | 1006.4 hPa | 0 mm | - | - | - |
| 1777890634 | 1.11° C | 86% | 1006.4 hPa | 0 mm | - | - | - |
| 1777890601 | 1.11° C | 86% | 1006.4 hPa | 0 mm | - | - | - |
| 1777890089 | 1.11° C | 87% | 1006.4 hPa | 0 mm | - | - | - |
| 1777889941 | 1.11° C | 87% | 1006.3 hPa | 0 mm | - | - | - |
* Rain latest hour (hover to see other rain measurements)
** Current wind speed in m/s (hover to see current wind gust speed)